Regional Weather Roundup
Issued by NWS Charleston, SC

Current Version | Previous Version | Graphics & Text | Print | Product List | Glossary On
Versions: 1 2 3 4 5 6 7 8 9 10 11 12 13 14 15 16 17 18 19 20 21 22 23 24 25 26 27 28 29 30 31 32 33 34 35 36 37 38 39 40 41 42 43 44 45 46 47 48 49 50
000 ASUS42 KCHS 190538 RWRCHS REGIONAL WEATHER ROUNDUP NATIONAL WEATHER SERVICE CHARLESTON SC 100 AM EDT TUE SEP 19 2017 NOTE: "FAIR" INDICATES FEW OR NO CLOUDS BELOW 12,000 FEET WITH NO SIGNIFICANT WEATHER AND/OR OBSTRUCTIONS TO VISIBILITY. NOT ALL STATIONS ARE QUALITY CONTROLLED. USE DATA WITH CAUTION... ESPECIALLY DEWPOINT OBSERVATIONS. SCZ027-030-031-034>040-042>050-190600- ...SOUTHEAST SOUTH CAROLINA... CITY SKY/WX TMP DP RH WIND PRES REMARKS N CHARLESTON CLEAR 72 72 100 CALM 29.97F WATERFRONT PRK N/A 75 73 93 CALM 29.81F JOHNS ISLAND FAIR 72 72 100 CALM 29.97S PINOPOLIS N/A 75 72 88 VRB3 29.89F MONCKS CORNER FAIR 66 66 100 CALM 29.97F SUMMERVILLE FAIR 68 68 100 CALM 29.98S BEAUFORT MCAS CLEAR 72 70 93 SW3 29.97F BEAUFORT ARPT FAIR 73 72 94 CALM 29.96F HILTON HEAD IS CLEAR 73 73 100 CALM 29.97F WALTERBORO CLEAR 68 64 88 CALM 29.98S ALLENDALE NOT AVBL ...SOUTHERN MIDLANDS AND PEE DEE... CITY SKY/WX TMP DP RH WIND PRES REMARKS GEORGETOWN FAIR 66 64 94 CALM 29.97F FOG KINGSTREE FAIR 64 63 94 CALM 29.97F ORANGEBURG PTCLDY 69 68 96 CALM 29.98F BARNWELL FAIR 70 68 94 CALM 29.98F AIKEN FAIR 66 64 94 CALM 30.03S MANNING FAIR 66 61 82 CALM 29.98S COLUMBIA PTCLDY 71 68 90 CALM 29.98F SUMTER CLEAR 68 64 85 NE5 29.97S FLORENCE CLEAR 68 66 93 CALM 29.98F MYRTLE BEACH CLEAR 69 68 96 W3 29.97F N MYRTLE BEACH CLEAR 71 68 90 NW3 29.95F $$ GAZ063-065-086>088-099>101-113>116-118-119-134>141-150-190600- ...SOUTHEAST GEORGIA... CITY SKY/WX TMP DP RH WIND PRES REMARKS SAVANNAH ARPT CLEAR 74 70 87 CALM 29.98F HUNTER AAF CLEAR 72 70 94 CALM 29.95F FORT STEWART CLOUDY 73 69 89 CALM 29.95F STATESBORO CLEAR 71 71 100 CALM 29.98S SYLVANIA CLEAR 71 71 100 CALM 29.99S CLAXTON FAIR 71 70 97 CALM 29.98F ...CSRA...CENTRAL AND FAR SOUTHEAST GEORGIA... CITY SKY/WX TMP DP RH WIND PRES REMARKS THOMSON CLEAR 69 68 95 CALM 30.03F AUGUSTA-BUSH CLEAR 70 68 93 CALM 29.97F AUGUSTA-DANIEL CLEAR 76 69 79 CALM 29.99F SWAINSBORO FAIR 70 70 100 CALM 29.99F VIDALIA CLEAR 72 70 94 CALM 29.98F EASTMAN FAIR 69 69 100 CALM 30.00F FOG HAZLEHURST FAIR 73 63 69 S3 29.97S ALMA CLEAR 70 68 93 CALM 29.98F WAYCROSS CLEAR 72 69 90 CALM 29.98S JESUP NOT AVBL BAXLEY FAIR 70 68 94 CALM 29.97F BRUNSWICK FOG 70 68 94 CALM 29.98S VSB 3/4 SAINT SIMONS CLEAR 75 71 87 CALM 29.97F $$ SCZ027-028-034-036>038-045-046-048>050-GAZ119-141-190600- ...LAKE AND SUPPLEMENTAL COASTAL OBSERVATIONS... STATION/POSITION TIME TEMP WIND PRES WAVE SWELL AIR SEA DIR/SP/G HT/PER HT/PER/DIR (UTC) (F) (DEG/KT/KT) (MB) (FT/S) (FT/S/D) WINYAH BAY 0445 72 310/ 2 1015.0S LAKE MURRAY 0430 73 CALM / 1 1014.9F ACE BASIN NERRS 0445 72 CALM 1015.0S FORT PULASKI 0500 77 79 230/ 2/ 3 1015.1 SAPELO ISLAND 0500 74 CALM 1015.0 $$ ANZ835-935-AMZ111-154-330-350-352-354-370-450-454-472-190600- ...C-MAN AND BUOY OBSERVATIONS... STATION/POSITION TIME TEMP WIND PRES WAVE SWELL AIR SEA DIR/SP/G HT/PER HT/PER/DIR (UTC) (F) (DEG/KT/KT) (MB) (FT/S) (FT/S/D) BUOY 41004 0510 77 82 300/ 6/ 8 1013.9 BUOY 41008 0450 79 80 210/ 4/ 4 1014.7F 3/12 3/ 70/12 FOLLY BEACH CMAN 0500 75 280/ 3/ 3 1015.4F CAPERS NEARSHORE 0508 74 79 280/ 6/ 10 1014.4F FRIPP NEARSHORE 0508 78 230/ 4/ 6 1021.7R STATION/POSITION TIME TEMP WIND PRES WAVE SWELL AIR SEA DIR/SP/G HT/PER HT/PER/DIR (UTC) (F) (DEG/KT/KT) (MB) (FT/S) (FT/S/D) 5E ST. MARYS GA 0500 81 N/A 4/12 2/ 80/12 FRYING PAN BUOY 0510 77 81 360/ 16/ 19 1012.6 BUOY 41025 0450 75 77 340/ 29/ 37 1007.9F 12/11 10/ 90/11 CAPE LOOKOUT NC 0500 73 340/ 15/ 18 1011.3F BUOY 41002 0450 80 80 310/ 16/ 19 1010.7S 11/11 8/ 50/11 BUOY 41010 0510 84 20/ 10/ 14 1013.7 ST AUGUSTINE FL 0500 80 81 60/ 10/ 10 1015.0F $$

USA.gov is the U.S. government's official web portal to all federal, state and local government web resources and services.